www.pogodaiklimat.ru

Погода и климат >> Архив погоды >> Австралия >> Новый Южный Уэльс >> Милдьюра


ПОГОДА в Милдьюре

  • Прогноз погоды в Милдьюре
  • Монитор погоды в Милдьюре

АРХИВ ПОГОДЫ в Милдьюре

Время (UTC), дата Ветер
(напр.,м/с)
 
Видим.   Явления Облачность Т
(С)
Тd
(С)
f
(%)
Тe
(С)
Тes
(С)
Комфортность P
(гПа)
Po
(гПа)
Тmin
(С)
Tmax
(С)
R
(мм)
R24
(мм)
S
(см)
19 11.09 С 4 н/о н/о +11.3 -4.8 32 +10 +10 1022.3 1016.1
20 11.09 С 4 н/о н/о +13.0 -4.6 29 +12 +12 1022.6 1016.4
21 11.09 СЗ 3 н/о н/о +12.0 -4.6 31 +11 +11 1023.4 1017.2
22 11.09 С 5 н/о н/о +13.9 -4.3 28 +13 +13 1023.0 1016.8
23 11.09 СЗ 6 35 км 4/0
[]
+18.2 -4.5 21 +18 +19 1023.4 1017.2
00 12.09 СЗ 6 н/о н/о +21.1 -4.9 17 +20 +20 1023.0 1016.8
01 12.09 З 7 н/о н/о +24.1 -6.0 13 +22 +22 комфорт 1022.1 1015.9
02 12.09 З 9 н/о н/о +24.9 -5.4 13 +23 +23 комфорт 1021.7 1015.5 +10.6
03 12.09 З 7 н/о н/о +26.2 -3.4 14 +24 +24 комфорт 1021.4 1015.2
04 12.09 З 7 н/о н/о +26.6 -3.1 14 +24 +24 комфорт 1020.6 1014.4
05 12.09 ЮЗ 7 35 км 1/0
[]
+25.9 +1.2 20 +24 +27 комфорт 1020.7 1014.5
06 12.09 ЮЗ 5 н/о н/о +25.6 +4.7 26 +25 +25 комфорт 1020.7 1014.5
07 12.09 ЮЗ 5 н/о н/о +24.8 +4.0 26 +24 +24 комфорт 1021.3 1015.1
08 12.09 ЮЗ 4 н/о н/о +23.2 +2.7 26 +23 +23 комфорт 1021.9 1015.7
09 12.09 Ю 3 н/о н/о +20.3 +3.1 32 +21 +21 комфорт 1022.8 1016.6
10 12.09 Ю 3 н/о н/о +18.4 +3.1 36 +19 +19 1024.0 1017.8
11 12.09 Ю 3 н/о н/о +16.7 +3.7 42 +17 +17 1024.6 1018.4
12 12.09 Ю 3 н/о н/о +15.4 +4.5 48 +15 +15 1024.8 1018.6
13 12.09 Ю 3 н/о н/о +13.8 +5.2 56 +13 +13 1025.0 1018.8
14 12.09 Ю 3 н/о н/о +12.5 +5.7 63 +11 +11 1025.0 1018.8 +27.3
15 12.09 Ю 3 н/о н/о +11.6 +6.3 70 +10 +10 1025.0 1018.8
16 12.09 Ю 3 н/о н/о +10.4 +6.9 79 +9 +9 1024.7 1018.5
17 12.09 Ю 2 н/о н/о +8.6 +6.4 86 +7 +7 1024.5 1018.3
18 12.09 ЮЗ 2 н/о н/о +7.5 +6.3 92 +5 +5 1024.6 1018.4
19 12.09 З 2 н/о н/о +6.3 +5.4 94 +4 +4 1025.5 1019.3
20 12.09 ЮЗ 2 н/о н/о +6.0 +5.7 98 +3 +3 1025.9 1019.7
21 12.09 Ю 2 н/о н/о +6.1 +6.0 99 +4 +4 1025.9 1019.7
22 12.09 ЮВ 2 н/о н/о +8.9 +7.2 89 +7 +7 1026.7 1020.5
23 12.09 З 1 30 км ясно +11.9 +7.4 74 +12 +18 1027.4 1021.2
00 13.09 СЗ 3 н/о н/о +14.9 +7.9 63 +14 +14 1027.2 1021.0
01 13.09 СЗ 2 н/о н/о +17.3 +7.9 54 +18 +18 1026.4 1020.2
02 13.09 З 5 н/о н/о +18.5 +6.7 46 +19 +19 1026.3 1020.1 +5.6
03 13.09 З 5 н/о н/о +20.1 +5.4 38 +21 +21 комфорт 1025.4 1019.2
04 13.09 З 5 н/о н/о +21.4 +3.6 31 +22 +22 комфорт 1024.8 1018.6
05 13.09 ЮЗ 4 30 км ясно +22.0 +3.2 29 +22 +22 комфорт 1024.3 1018.1
06 13.09 ЮЗ 5 н/о н/о +22.6 +3.7 29 +23 +23 комфорт 1024.0 1017.8
07 13.09 ЮЗ 6 н/о н/о +22.3 +2.9 28 +22 +22 комфорт 1024.5 1018.3
08 13.09 ЮЗ 4 н/о н/о +21.3 +1.6 27 +21 +21 комфорт 1024.9 1018.7
09 13.09 ЮЗ 3 н/о н/о +19.3 +1.3 30 +20 +20 1025.6 1019.4
10 13.09 ЮЗ 2 н/о н/о +17.3 +2.1 36 +18 +18 1026.2 1020.0
11 13.09 ЮЗ 2 н/о н/о +15.6 +3.1 43 +16 +16 1026.6 1020.4
12 13.09 ЮЗ 3 н/о н/о +14.8 +4.2 49 +14 +14 1027.0 1020.8
13 13.09 ЮЗ 3 н/о н/о +14.3 +5.7 56 +13 +13 1027.0 1020.8
14 13.09 Ю 3 н/о н/о +13.4 +6.0 61 +12 +12 1027.2 1021.0 +23.2
15 13.09 Ю 4 н/о н/о +12.4 +6.7 68 +11 +11 1027.3 1021.1
16 13.09 Ю 5 н/о н/о +11.4 +7.5 77 +9 +9 1027.6 1021.4
17 13.09 Ю 3 н/о н/о +9.9 +7.5 85 +8 +8 1027.4 1021.2
18 13.09 Ю 2 н/о н/о +8.7 +7.3 91 +7 +7 1027.1 1020.9
19 13.09 ЮЗ 2 н/о н/о +7.4 +6.7 95 +6 +6 1027.4 1021.2
20 13.09 ЮЗ 2 н/о н/о +6.8 +6.7 99 +4 +4 1027.7 1021.5
21 13.09 ЮЗ 1 н/о н/о +6.2 +6.1 99 +5 +5 1028.2 1022.0
22 13.09 ЮВ 1 н/о н/о +9.5 +7.9 90 +9 +9 1028.4 1022.2
23 13.09 ЮВ 4 30 км ясно +12.7 +7.6 71 +11 +11 1028.7 1022.5
00 14.09 ЮВ 3 н/о н/о +14.7 +6.8 59 +14 +14 1028.9 1022.7
01 14.09 ЮВ 2 н/о н/о +16.2 +4.9 47 +17 +17 1028.2 1022.0
02 14.09 В 2 н/о н/о +18.8 +1.8 32 +19 +19 1027.3 1021.1 +5.8
03 14.09 С 2 н/о н/о +20.5 +0.9 27 +21 +21 комфорт 1026.2 1020.0
04 14.09 СВ 3 н/о н/о +22.5 -2.2 19 +21 +21 комфорт 1025.2 1019.0
05 14.09 СЗ 2 н/о н/о +24.1 -6.0 13 +22 +22 комфорт 1024.5 1018.3
06 14.09 С 3 н/о н/о +24.0 -5.1 14 +22 +22 комфорт 1023.8 1017.6
07 14.09 СЗ 2 н/о н/о +24.8 -4.5 14 +23 +23 комфорт 1023.9 1017.7
08 14.09 З 3 н/о н/о +22.9 -4.2 16 +21 +21 комфорт 1024.4 1018.2
09 14.09 С 2 н/о н/о +18.6 -1.3 26 +19 +19 1024.3 1018.1
10 14.09 СЗ 1 н/о н/о +15.5 -1.5 31 +16 +16 1024.7 1018.5
11 14.09 штиль 0 н/о н/о +13.7 -1.5 35 +14 +14 1024.5 1018.3
12 14.09 штиль 0 н/о н/о +13.2 -1.9 35 +13 +13 1024.3 1018.1
13 14.09 СВ 3 н/о н/о +13.4 +0.1 40 +13 +13 1023.4 1017.2
14 14.09 СВ 2 н/о н/о +13.3 +1.0 43 +13 +13 1023.1 1016.9 +25.0
15 14.09 С 3 н/о н/о +13.2 +3.8 53 +12 +12 1022.5 1016.3
16 14.09 С 2 н/о н/о +11.6 +4.3 61 +11 +11 1021.9 1015.7
17 14.09 СВ 3 н/о н/о +12.7 +2.0 48 +12 +12 1020.8 1014.6
18 14.09 С 3 н/о н/о +14.1 +2.4 45 +14 +14 1020.5 1014.3
19 14.09 С 3 н/о н/о +13.6 +2.2 46 +13 +13 1020.3 1014.1
20 14.09 С 3 н/о н/о +14.5 +1.4 41 +14 +14 1021.0 1014.8
21 14.09 С 4 н/о н/о +14.6 +1.8 42 +14 +14 1021.1 1014.9
22 14.09 С 5 н/о н/о +18.2 +1.7 33 +18 +18 1021.7 1015.5
23 14.09 С 5 25 км 9/0
[]
+21.1 +2.9 30 +21 +23 комфорт 1021.6 1015.4
00 15.09 С 5 н/о н/о +24.0 +2.8 25 +23 +23 комфорт 1020.7 1014.5
01 15.09 С 5 н/о н/о +26.9 +3.4 22 +26 +26 жарко 1020.0 1013.8
02 15.09 СЗ 6 н/о н/о +28.5 +1.9 18 +26 +26 жарко 1019.3 1013.2 +11.3
03 15.09 СЗ 7 н/о н/о +29.6 +2.0 17 +27 +27 жарко 1018.3 1012.2
04 15.09 СЗ 6 н/о н/о +30.2 +2.5 17 +28 +28 жарко 1017.5 1011.4
05 15.09 З 7 н/о н/о +30.2 +0.7 15 +27 +27 жарко 1016.4 1010.3
06 15.09 З 6 н/о н/о +30.5 +1.0 15 +28 +28 жарко 1016.0 1009.9
07 15.09 СЗ 5 н/о н/о +30.0 +1.5 16 +27 +27 жарко 1015.6 1009.5
08 15.09 З 4 н/о н/о +29.0 -0.2 15 +26 +26 жарко 1015.8 1009.7
09 15.09 З 2 н/о н/о +27.1 +1.5 19 +25 +25 комфорт 1016.3 1010.2
10 15.09 З 2 н/о н/о +26.7 +2.6 21 +25 +25 комфорт 1016.8 1010.7
11 15.09 С 2 н/о н/о +25.0 +3.0 24 +24 +24 комфорт 1016.3 1010.2
12 15.09 С 3 н/о н/о +23.2 +3.2 27 +23 +23 комфорт 1015.8 1009.7
13 15.09 СЗ 3 н/о н/о +22.2 +2.8 28 +22 +22 комфорт 1015.2 1009.1
14 15.09 СЗ 2 н/о н/о +22.3 +1.9 26 +22 +22 комфорт 1015.0 1008.9 +31.9
15 15.09 СЗ 3 н/о н/о +20.1 +1.0 28 +21 +21 комфорт 1014.6 1008.5
16 15.09 Ю 5 н/о н/о +18.2 +6.7 47 +18 +18 1015.3 1009.2
17 15.09 Ю 5 н/о н/о +17.3 +8.4 56 +17 +17 1015.0 1008.9
18 15.09 Ю 4 н/о н/о +16.5 +10.1 66 +16 +16 1015.5 1009.4
19 15.09 Ю 6 н/о н/о +15.4 +10.4 72 +14 +14 1016.9 1010.8
20 15.09 Ю 5 н/о 1/1 600 м
[]
+14.6 +10.0 74 +13 +13 1017.7 1011.6
21 15.09 Ю 6 н/о н/о +12.4 +6.5 67 +10 +10 1018.9 1012.8
22 15.09 Ю 6 н/о н/о +12.2 +4.7 60 +10 +10 1019.8 1013.6
23 15.09 Ю 6 25 км 6/0
[]
+14.1 +4.9 54 +12 +14 1020.3 1014.1
00 16.09 Ю 6 н/о н/о +14.0 +4.9 54 +12 +12 1020.8 1014.6
01 16.09 Ю 6 н/о н/о +14.8 +4.5 50 +13 +13 1020.8 1014.6
02 16.09 Ю 5 н/о н/о +14.1 +4.7 53 +13 +13 1021.5 1015.3 +11.9
03 16.09 Ю 5 н/о н/о +9.9 +9.3 96 +7 +7 1021.8 1015.6
04 16.09 Ю 5 н/о н/о +9.1 +8.3 95 +5 +5 1021.7 1015.5
05 16.09 Ю 3 10 км дождь 10/0
[]
+9.3 +9.0 98 +7 +11 1022.8 1016.6
06 16.09 Ю 3 н/о н/о +9.6 +9.5 99 +7 +7 1022.5 1016.3
07 16.09 Ю 2 н/о н/о +10.3 +9.4 94 +9 +9 1023.0 1016.8
08 16.09 Ю 2 н/о {туман} н/о +10.4 +9.5 94 +9 +9 1023.0 1016.8
09 16.09 ЮЗ 2 н/о н/о +9.6 +9.1 97 +8 +8 1023.8 1017.6
10 16.09 Ю 2 н/о н/о +8.4 +7.2 92 +6 +6 1024.3 1018.1
11 16.09 Ю 4 н/о {туман} н/о +8.7 +4.5 75 +6 +6 1024.7 1018.5
12 16.09 Ю 3 н/о н/о +8.1 +3.8 74 +6 +6 1025.6 1019.4
13 16.09 Ю 3 н/о н/о +7.0 +3.8 80 +4 +4 1025.7 1019.5
14 16.09 Ю 4 н/о н/о +6.7 +3.1 78 +3 +3 1026.2 1020.0 +23.6
15 16.09 Ю 4 н/о н/о +6.0 +2.3 77 +2 +2 1026.5 1020.3
16 16.09 Ю 4 н/о н/о +5.1 +1.8 79 +1 +1 1026.4 1020.2
17 16.09 Ю 3 н/о н/о +4.0 +1.5 84 +1 +1 1026.0 1019.8
18 16.09 Ю 4 н/о н/о +3.5 +0.9 83 -1 -1 1026.1 1019.9
19 16.09 Ю 3 н/о н/о +2.6 +0.7 87 -1 -1 1026.2 1020.0
20 16.09 Ю 3 н/о н/о +1.7 +0.4 91 -2 -2 1026.8 1020.6
21 16.09 Ю 3 н/о н/о +1.7 +0.5 92 -2 -2 1027.3 1021.1
22 16.09 Ю 4 н/о н/о +4.8 +1.1 77 +1 +1 1027.8 1021.6
23 16.09 Ю 5 30 км ясно +7.5 +2.4 70 +4 +4 1028.5 1022.3
00 17.09 Ю 6 н/о н/о +10.0 +2.8 61 +7 +7 1028.3 1022.1
01 17.09 Ю 6 н/о н/о +11.5 +0.3 46 +9 +9 1027.9 1021.7
02 17.09 ЮВ 6 н/о н/о +12.0 -0.2 43 +10 +10 1027.4 1021.2 +1.4
03 17.09 ЮВ 5 н/о н/о +13.8 -1.4 35 +12 +12 1026.4 1020.2
04 17.09 Ю 6 н/о н/о +14.3 -1.7 33 +13 +13 1025.8 1019.6
05 17.09 ЮВ 5 30 км ясно +15.4 -2.1 30 +14 +19 1025.4 1019.2
06 17.09 ЮВ 6 н/о н/о +15.3 -2.6 29 +14 +14 1025.5 1019.3
07 17.09 ЮВ 4 н/о н/о +15.2 -3.2 28 +15 +15 1025.8 1019.6
08 17.09 ЮВ 4 н/о н/о +14.2 -3.1 30 +13 +13 1026.3 1020.1
09 17.09 Ю 2 н/о н/о +11.6 -0.5 43 +11 +11 1026.9 1020.7
10 17.09 ЮВ 3 н/о н/о +10.9 -0.5 45 +10 +10 1027.7 1021.5
11 17.09 Ю 3 н/о н/о +9.1 -0.2 52 +7 +7 1028.2 1022.0
12 17.09 Ю 2 н/о н/о +7.5 +0.3 60 +6 +6 1028.3 1022.1
13 17.09 ЮВ 2 н/о н/о +6.4 +0.7 67 +5 +5 1028.0 1021.8
14 17.09 ЮВ 3 н/о н/о +7.4 +1.3 65 +5 +5 1027.5 1021.3 +16.1
15 17.09 ЮВ 2 н/о н/о +6.5 +1.0 68 +4 +4 1027.4 1021.2
16 17.09 Ю 2 н/о н/о +4.9 +1.2 77 +2 +2 1027.3 1021.1
17 17.09 Ю 2 н/о н/о +4.0 +0.9 80 +1 +1 1027.0 1020.8
18 17.09 Ю 2 н/о н/о +2.9 +0.8 86 0 0 1026.9 1020.7
19 17.09 Ю 2 н/о н/о +2.7 +0.9 88 0 0 1027.1 1020.9
20 17.09 В 2 н/о н/о +2.2 +1.0 92 -1 -1 1027.2 1021.0
21 17.09 В 2 н/о н/о +3.6 +2.4 92 +1 +1 1027.7 1021.5
22 17.09 В 2 н/о н/о +8.7 +2.3 64 +7 +7 1028.0 1021.8
23 17.09 СВ 4 35 км ясно +13.1 +3.2 51 +12 +16 1028.0 1021.8
00 18.09 СВ 5 н/о н/о +15.6 +3.7 45 +15 +15 1027.3 1021.1
01 18.09 В 4 н/о н/о +16.9 +3.2 40 +16 +16 1026.6 1020.4
02 18.09 СВ 4 н/о н/о +18.6 +4.4 39 +19 +19 1025.7 1019.5 +1.8
03 18.09 СВ 4 н/о н/о +19.2 +3.8 36 +19 +19 1025.1 1018.9
04 18.09 С 5 н/о н/о +20.2 +4.3 35 +21 +21 комфорт 1024.4 1018.2
05 18.09 СВ 4 30 км ясно +20.1 +3.3 33 +21 +28 комфорт 1023.8 1017.6
06 18.09 СВ 4 н/о н/о +21.0 +4.1 33 +22 +22 комфорт 1023.0 1016.8
07 18.09 В 4 н/о н/о +20.8 +2.6 30 +21 +21 комфорт 1022.8 1016.6
08 18.09 СВ 4 н/о н/о +20.0 +3.7 34 +21 +21 комфорт 1022.7 1016.5
09 18.09 В 2 н/о н/о +17.2 +4.5 43 +18 +18 1022.7 1016.5
10 18.09 В 2 н/о н/о +15.2 +4.6 49 +15 +15 1023.0 1016.8
11 18.09 С 2 н/о н/о +14.9 +5.1 52 +15 +15 1023.0 1016.8
12 18.09 СВ 2 н/о н/о +12.3 +5.7 64 +12 +12 1023.1 1016.9
13 18.09 В 2 н/о н/о +11.3 +5.0 65 +10 +10 1022.7 1016.5
14 18.09 СВ 2 н/о н/о +11.0 +4.7 65 +10 +10 1022.1 1015.9 +21.4
15 18.09 СВ 3 н/о н/о +10.9 +4.8 66 +9 +9 1021.8 1015.6
16 18.09 СВ 2 н/о н/о +10.0 +4.8 70 +9 +9 1021.1 1014.9
17 18.09 СВ 3 н/о н/о +9.5 +4.5 71 +8 +8 1020.6 1014.4
18 18.09 СВ 3 н/о н/о +8.9 +4.7 75 +7 +7 1020.5 1014.3
19 18.09 СВ 3 н/о н/о +8.4 +4.0 74 +6 +6 1020.5 1014.3

 

Местоположение метеостанции Милдьюра (Новый Южный Уэльс, Австралия): широта -34.23 долгота 142.08 высота над уровнем моря 53 м.

В архиве по умолчанию представлена погода в Милдьюре за последнюю неделю. Архивные данные за месяц целиком и за предыдущие месяцы, начиная с января 2011 года, Вы можете получить, выбрав интересующий диапазон дат из раскрывающегося списка и нажав кнопку "Ввод!".


*Определитесь, кто Вы:
робот инопланетянин человек

Внимание! Время в таблицах - всемирное. Для получения местного времени необходимо прибавить поправку, которая равна 10 ч.

Смотрите также архив погоды в соседних городах и на ближайших метеорологических станциях:

Погода в Уолпеапе (Виктория, Австралия) (99 км)
Погода в Ренмарке (Южная Австралия, Австралия) (129 км)
Погода в Локстоне (Южная Австралия, Австралия) (138 км)
Погода в Хоптауне (Виктория, Австралия) (168 км)
Погода в Суон-Хилле (Виктория, Австралия) (184 км)
Погода в Ламеру (Южная Австралия, Австралия) (190 км)
Погода в Нхилле (Виктория, Австралия) (237 км)
Погода в Чарльтоне (Виктория, Австралия) (255 км)
Погода в Хее (Новый Южный Уэльс, Австралия) (255 км)
Погода в Брокен-Хилл аэропорту (Новый Южный Уэльс, Австралия) (255 км)

Пояснения к столбцам:

Ветер - указаны скорость ветра в м/с - средняя за 10 мин, порывы в срок и между сроками (в фигурных скобках) и направление, откуда дует ветер: С - северный, СВ - северо-восточный, В - восточный, ЮВ - юго-восточный, Ю - южный, ЮЗ - юго-западный, З - западный, СЗ - северо-западный.
Видимость - горизонтальная дальность видимости в метрах или километрах. При видимости от 1 до 10 км при отсутствии осадков обычно наблюдается дымка, при ухудшении видимости до 1 км и менее - туман. В сухую погоду видимость может ухудшаться дымом, пылью или мглою.
Явления - указаны атмосферные явления, наблюдавшиеся в срок или в последний час перед сроком; фигурными скобками обозначены явления, наблюдавшиеся между сроками (за 1-3 часа до срока); квадратными скобками обозначены град или гололедные отложения с указанием их диаметра в мм.
Облачность - указаны через наклонную черту общая и нижняя облачность в баллах и высота нижней границы облаков в метрах; квадратными скобками обозначены формы облаков: Ci - перистые, Cs - перисто-слоистые, Cc - перисто-кучевые, Ac - высококучевые, As - высокослоистые, Sc - слоисто-кучевые, Ns - слоисто-дождевые, Cu - кучевые, Cb - кучево-дождевые. Подробнее классификацию облаков см. в Атласе облаков (PDF).
T - Температура воздуха - температура, измеренная на высоте 2 м над землей.
Td - Температура точки росы - температура, при понижении до которой содержащийся в воздухе водяной пар достигнет насыщения.
f - Относительная влажность воздуха - влажноcть воздуха, измеренная на высоте 2 м над землей.
Te - Эффективная температура - температура, которую ощущает одетый по сезону человек в тени. Характеристика душности погоды. При расчете учитывается влияние влажности воздуха и скорости ветра на теплоощущения человека.
Tes - Эффективная температура на солнце - температура, которую ощущает человек, с поправкой на солнечный нагрев. Характеристика знойности погоды. Зависит от высоты солнца над горизонтом, облачности и скорости ветра. Ночью, в пасмурную погоду, а также при ветре 12 м/с и более поправка равна нулю.
P - Атмосферное давление - приведенное к уровню моря атмосферное давление.
Po - Атмосферное давление - измеренное на уровне метеостанции атмосферное давление.
Tmin - Минимальная температура - минимум температуры воздуха на высоте 2 м над землей.
Tmax - Максимальная температура - максимум температуры воздуха на высоте 2 м над землей.
R - Количество осадков - Количество выпавших осадков за период времени, мм. При наведении курсора мыши на число - период времени, за который выпало указанное количество осадков.
R24 - Количество осадков - Количество выпавших осадков за 24 часа, мм.
S - Снежный покров - Высота снежного покрова, см. При наведении курсора мыши на число - состояние снежного покрова и степень покрытия местности в баллах.